| time (UTC) | temp F | wind direction | speed MPH | gust MPH | rain 1hr in | rain 24hr in | rain mn in | humidity % | barometer mb |
| 20260905170047 | 72 | 349 | 9.0 | 15.0 | 0.00 | 0.00 | 0.00 | 71 | 999.9 |
| 20260905165147 | 72 | 350 | 6.0 | 12.0 | 0.00 | 0.00 | 0.00 | 72 | 1000.0 |
| 20260905164247 | 71 | 328 | 8.0 | 15.0 | 0.00 | 0.00 | 0.00 | 73 | 999.9 |
| 20260905163348 | 71 | 327 | 8.0 | 17.0 | 0.00 | 0.00 | 0.00 | 72 | 999.9 |
| 20260905162447 | 71 | 352 | 6.0 | 14.0 | 0.00 | 0.00 | 0.00 | 73 | 999.8 |
| 20260905161547 | 71 | 335 | 7.0 | 13.0 | 0.00 | 0.00 | 0.00 | 75 | 999.8 |
| 20260905160647 | 71 | 337 | 8.0 | 13.0 | 0.00 | 0.00 | 0.00 | 75 | 999.9 |
| 20260905154847 | 71 | 23 | 10.0 | 18.0 | 0.00 | 0.00 | 0.00 | 77 | 1000.0 |
| 20260905153947 | 71 | 36 | 13.0 | 18.0 | 0.00 | 0.00 | 0.00 | 72 | 1000.0 |
| 20260905153047 | 72 | 12 | 10.0 | 19.0 | 0.00 | 0.00 | 0.00 | 71 | 999.9 |
| 20260905152147 | 71 | 9 | 12.0 | 18.0 | 0.00 | 0.00 | 0.00 | 74 | 999.9 |
| 20260905150347 | 71 | 37 | 11.0 | 21.0 | 0.00 | 0.00 | 0.00 | 74 | 999.8 |
| 20260905145447 | 70 | 38 | 12.0 | 20.0 | 0.00 | 0.00 | 0.00 | 75 | 999.9 |
| 20260905144547 | 70 | 20 | 11.0 | 18.0 | 0.00 | 0.00 | 0.00 | 73 | 1000.0 |
| 20260905143647 | 69 | 350 | 13.0 | 19.0 | 0.00 | 0.00 | 0.00 | 74 | 999.9 |
| 20260905141847 | 69 | 22 | 11.0 | 20.0 | 0.00 | 0.00 | 0.00 | 75 | 999.8 |
| 20260905140947 | 69 | 22 | 13.0 | 20.0 | 0.00 | 0.00 | 0.00 | 76 | 999.7 |
| 20260905140047 | 69 | 26 | 14.0 | 20.0 | 0.00 | 0.00 | 0.00 | 75 | 999.9 |
| 20260905135147 | 69 | 21 | 12.0 | 18.0 | 0.00 | 0.00 | 0.00 | 76 | 999.8 |
| 20260905133347 | 69 | 4 | 6.0 | 12.0 | 0.00 | 0.00 | 0.00 | 79 | 1000.0 |
| 20260905132447 | 68 | 25 | 10.0 | 15.0 | 0.00 | 0.00 | 0.00 | 79 | 999.9 |
| 20260905131547 | 69 | 24 | 10.0 | 15.0 | 0.00 | 0.00 | 0.00 | 75 | 1000.0 |
| 20260905124847 | 68 | 16 | 8.0 | 13.0 | 0.00 | 0.00 | 0.00 | 81 | 1000.2 |
| 20260905123947 | 68 | 345 | 8.0 | 12.0 | 0.00 | 0.00 | 0.00 | 82 | 1000.1 |
| 20260905123047 | 68 | 336 | 10.0 | 13.0 | 0.00 | 0.00 | 0.00 | 82 | 1000.3 |
| 20260905122147 | 68 | 337 | 8.0 | 13.0 | 0.00 | 0.00 | 0.00 | 81 | 1000.4 |
| 20260905120347 | 68 | 324 | 10.0 | 13.0 | 0.00 | 0.00 | 0.00 | 82 | 1000.2 |
| 20260905115447 | 68 | 326 | 10.0 | 12.0 | 0.00 | 0.00 | 0.00 | 82 | 1000.0 |
| 20260905114547 | 67 | 327 | 9.0 | 11.0 | 0.00 | 0.00 | 0.00 | 82 | 1000.0 |
| 20260905113647 | 67 | 334 | 9.0 | 12.0 | 0.00 | 0.00 | 0.00 | 83 | 999.9 |
| 20260905112747 | 67 | 329 | 10.0 | 12.0 | 0.00 | 0.00 | 0.00 | 82 | 999.7 |
| 20260905111847 | 67 | 327 | 10.0 | 12.0 | 0.00 | 0.00 | 0.00 | 83 | 999.6 |
| 20260905110947 | 67 | 333 | 9.0 | 11.0 | 0.00 | 0.00 | 0.00 | 83 | 999.5 |
| 20260905110047 | 67 | 339 | 10.0 | 11.0 | 0.00 | 0.00 | 0.00 | 83 | 999.3 |
| 20260905105147 | 67 | 4 | 11.0 | 13.0 | 0.00 | 0.00 | 0.00 | 83 | 999.3 |
| 20260905104247 | 67 | 13 | 12.0 | 13.0 | 0.00 | 0.00 | 0.00 | 82 | 999.2 |
| 20260905102447 | 68 | 20 | 10.0 | 12.0 | 0.00 | 0.00 | 0.00 | 81 | 999.1 |
| 20260905101547 | 68 | 18 | 10.0 | 12.0 | 0.00 | 0.00 | 0.00 | 81 | 999.0 |
| 20260905100647 | 68 | 26 | 13.0 | 15.0 | 0.00 | 0.00 | 0.00 | 80 | 999.0 |
| 20260905095747 | 68 | 28 | 15.0 | 19.0 | 0.00 | 0.00 | 0.00 | 79 | 999.1 |
| 20260905094847 | 68 | 29 | 13.0 | 16.0 | 0.00 | 0.00 | 0.00 | 79 | 999.0 |
| 20260905093947 | 68 | 32 | 10.0 | 14.0 | 0.00 | 0.00 | 0.00 | 80 | 998.9 |
| 20260905093047 | 68 | 36 | 10.0 | 12.0 | 0.00 | 0.00 | 0.00 | 80 | 999.0 |
| 20260905092147 | 68 | 35 | 10.0 | 12.0 | 0.00 | 0.00 | 0.00 | 79 | 999.0 |
| 20260905091247 | 68 | 30 | 9.0 | 13.0 | 0.00 | 0.00 | 0.00 | 80 | 998.9 |
| 20260905090347 | 68 | 30 | 8.0 | 11.0 | 0.00 | 0.00 | 0.00 | 79 | 999.0 |
| 20260905085447 | 68 | 26 | 11.0 | 18.0 | 0.00 | 0.00 | 0.00 | 79 | 999.0 |
| 20260905084547 | 69 | 29 | 12.0 | 18.0 | 0.00 | 0.00 | 0.00 | 78 | 998.9 |
| 20260905080947 | 69 | 19 | 14.0 | 17.0 | 0.00 | 0.00 | 0.00 | 77 | 998.9 |
| 20260905080047 | 69 | 17 | 14.0 | 17.0 | 0.00 | 0.00 | 0.00 | 77 | 998.9 |
| 20260905075147 | 69 | 22 | 14.0 | 19.0 | 0.00 | 0.00 | 0.00 | 76 | 998.8 |
| 20260905074247 | 69 | 18 | 14.0 | 18.0 | 0.00 | 0.00 | 0.00 | 76 | 998.8 |
| 20260905073347 | 69 | 17 | 13.0 | 17.0 | 0.00 | 0.00 | 0.00 | 76 | 998.8 |
| 20260905072446 | 69 | 19 | 15.0 | 20.0 | 0.00 | 0.00 | 0.00 | 75 | 998.9 |
| 20260905071547 | 69 | 6 | 13.0 | 18.0 | 0.00 | 0.00 | 0.00 | 75 | 998.9 |
| 20260905070647 | 70 | 349 | 13.0 | 19.0 | 0.00 | 0.00 | 0.00 | 75 | 999.0 |
| 20260905065747 | 70 | 346 | 13.0 | 18.0 | 0.00 | 0.00 | 0.00 | 74 | 999.1 |
| 20260905064847 | 70 | 354 | 15.0 | 21.0 | 0.00 | 0.00 | 0.00 | 73 | 999.2 |
| 20260905063947 | 70 | 357 | 13.0 | 20.0 | 0.00 | 0.01 | 0.00 | 73 | 999.2 |
| 20260905063047 | 71 | 357 | 14.0 | 20.0 | 0.00 | 0.01 | 0.00 | 72 | 999.2 |
| 20260905062147 | 71 | 357 | 16.0 | 21.0 | 0.00 | 0.02 | 0.00 | 72 | 999.3 |
| 20260905061247 | 71 | 352 | 16.0 | 21.0 | 0.00 | 0.37 | 0.00 | 71 | 999.3 |
| 20260905060346 | 71 | 346 | 16.0 | 22.0 | 0.00 | 0.49 | 0.00 | 71 | 999.4 |
| 20260905055447 | 71 | 353 | 16.0 | 21.0 | 0.00 | 0.49 | 0.00 | 70 | 999.4 |
| 20260905054547 | 71 | 355 | 15.0 | 20.0 | 0.00 | 0.49 | 0.00 | 70 | 999.5 |
| 20260905053647 | 72 | 353 | 15.0 | 22.0 | 0.00 | 0.49 | 0.00 | 71 | 999.7 |
| 20260905052747 | 72 | 356 | 17.0 | 24.0 | 0.00 | 0.49 | 0.00 | 70 | 999.6 |
| 20260905051847 | 72 | 356 | 17.0 | 24.0 | 0.00 | 0.49 | 0.00 | 68 | 999.7 |
| 20260905050947 | 72 | 1 | 16.0 | 21.0 | 0.00 | 0.49 | 0.00 | 69 | 999.9 |
| 20260905050047 | 72 | 7 | 16.0 | 23.0 | 0.00 | 0.49 | 0.00 | 69 | 1000.0 |
| 20260905045147 | 72 | 11 | 16.0 | 21.0 | 0.00 | 0.49 | 0.00 | 69 | 999.9 |
| 20260905044247 | 73 | 15 | 14.0 | 20.0 | 0.00 | 0.49 | 0.00 | 70 | 1000.0 |
| 20260905043347 | 73 | 18 | 13.0 | 17.0 | 0.00 | 0.49 | 0.00 | 68 | 1000.1 |
| 20260905042447 | 73 | 25 | 12.0 | 15.0 | 0.00 | 0.49 | 0.00 | 69 | 1000.1 |
| 20260905041546 | 73 | 30 | 14.0 | 17.0 | 0.00 | 0.49 | 0.00 | 71 | 1000.2 |
| 20260905035747 | 73 | 30 | 14.0 | 18.0 | 0.00 | 0.49 | 0.00 | 71 | 1000.2 |
| 20260905034847 | 73 | 19 | 16.0 | 19.0 | 0.00 | 0.49 | 0.00 | 73 | 1000.2 |
| 20260905033947 | 73 | 6 | 17.0 | 21.0 | 0.00 | 0.49 | 0.00 | 72 | 1000.1 |
| 20260905033047 | 74 | 353 | 16.0 | 21.0 | 0.00 | 0.49 | 0.00 | 71 | 1000.1 |
| 20260905032146 | 74 | 344 | 13.0 | 17.0 | 0.00 | 0.49 | 0.00 | 75 | 1000.0 |
| 20260905031247 | 74 | 325 | 11.0 | 14.0 | 0.00 | 0.49 | 0.00 | 78 | 1000.0 |
| 20260905030347 | 76 | 330 | 9.0 | 12.0 | 0.00 | 0.49 | 0.00 | 75 | 1000.0 |
| 20260905025447 | 76 | 330 | 7.0 | 12.0 | 0.00 | 0.49 | 0.00 | 67 | 999.9 |
| 20260905024547 | 76 | 323 | 5.0 | 6.0 | 0.00 | 0.49 | 0.00 | 66 | 999.9 |
| 20260905023647 | 76 | 327 | 4.0 | 5.0 | 0.00 | 0.49 | 0.00 | 66 | 999.9 |
| 20260905022747 | 76 | 325 | 5.0 | 6.0 | 0.00 | 0.49 | 0.00 | 67 | 1000.0 |
| 20260905021847 | 76 | 326 | 5.0 | 6.0 | 0.00 | 0.49 | 0.00 | 65 | 999.9 |
| 20260905020947 | 76 | 327 | 4.0 | 5.0 | 0.00 | 0.49 | 0.00 | 65 | 1000.0 |
| 20260905020046 | 76 | 342 | 4.0 | 5.0 | 0.00 | 0.49 | 0.00 | 65 | 1000.1 |
| 20260905015147 | 76 | 313 | 2.0 | 4.0 | 0.00 | 0.49 | 0.00 | 66 | 1000.1 |
| 20260905014246 | 76 | 324 | 2.0 | 4.0 | 0.00 | 0.49 | 0.00 | 65 | 1000.0 |
| 20260905013346 | 76 | 327 | 4.0 | 4.0 | 0.00 | 0.49 | 0.00 | 65 | 1000.0 |
| 20260905012447 | 76 | 5 | 3.0 | 4.0 | 0.00 | 0.49 | 0.00 | 68 | 1000.1 |
| 20260905011546 | 76 | 28 | 3.0 | 5.0 | 0.00 | 0.49 | 0.00 | 68 | 1000.2 |
| 20260905010647 | 76 | 31 | 2.0 | 5.0 | 0.00 | 0.49 | 0.00 | 68 | 1000.3 |
| 20260905005746 | 76 | 37 | 1.0 | 3.0 | 0.00 | 0.49 | 0.00 | 67 | 1000.2 |
| 20260905004847 | 76 | 45 | 3.0 | 5.0 | 0.00 | 0.49 | 0.00 | 68 | 1000.2 |
| 20260905003946 | 76 | 33 | 2.0 | 4.0 | 0.00 | 0.49 | 0.00 | 68 | 1000.3 |
| 20260905003046 | 76 | 17 | 1.0 | 3.0 | 0.00 | 0.49 | 0.00 | 71 | 1000.3 |
| 20260905001246 | 76 | 306 | 1.0 | 2.0 | 0.00 | 0.49 | 0.00 | 71 | 1000.1 |
| 20260905000348 | 77 | 293 | 3.0 | 5.0 | 0.00 | 0.49 | 0.00 | 72 | 1000.2 |
| 20260904235448 | 77 | 289 | 4.0 | 5.0 | 0.00 | 0.49 | 0.49 | 70 | 1000.1 |
| 20260904234547 | 77 | 313 | 4.0 | 6.0 | 0.00 | 0.49 | 0.49 | 71 | 1000.0 |
| 20260904233647 | 77 | 323 | 5.0 | 7.0 | 0.00 | 0.49 | 0.49 | 68 | 999.9 |
| 20260904232747 | 77 | 324 | 6.0 | 7.0 | 0.00 | 0.49 | 0.49 | 68 | 999.9 |
| 20260904231847 | 78 | 323 | 7.0 | 8.0 | 0.00 | 0.49 | 0.49 | 67 | 999.7 |
| 20260904230946 | 78 | 325 | 7.0 | 9.0 | 0.00 | 0.49 | 0.49 | 66 | 999.7 |
| 20260904230047 | 78 | 337 | 7.0 | 9.0 | 0.00 | 0.49 | 0.49 | 65 | 999.8 |
| 20260904225146 | 79 | 330 | 7.0 | 10.0 | 0.00 | 0.49 | 0.49 | 64 | 999.7 |
| 20260904224246 | 79 | 325 | 7.0 | 10.0 | 0.00 | 0.49 | 0.49 | 65 | 999.8 |
| 20260904223347 | 79 | 330 | 6.0 | 8.0 | 0.00 | 0.49 | 0.49 | 64 | 999.8 |
| 20260904221546 | 79 | 323 | 7.0 | 12.0 | 0.00 | 0.49 | 0.49 | 65 | 999.8 |
| 20260904220647 | 79 | 339 | 7.0 | 11.0 | 0.00 | 0.49 | 0.49 | 64 | 999.8 |
| 20260904215746 | 79 | 316 | 6.0 | 13.0 | 0.00 | 0.49 | 0.49 | 64 | 999.7 |
| 20260904214846 | 79 | 339 | 6.0 | 10.0 | 0.00 | 0.49 | 0.49 | 62 | 999.7 |
| 20260904213946 | 79 | 338 | 8.0 | 11.0 | 0.00 | 0.49 | 0.49 | 61 | 999.7 |
| 20260904213047 | 79 | 345 | 7.0 | 11.0 | 0.00 | 0.49 | 0.49 | 62 | 999.7 |
| 20260904212146 | 79 | 354 | 9.0 | 12.0 | 0.00 | 0.49 | 0.49 | 63 | 999.7 |
| 20260904211246 | 79 | 358 | 9.0 | 13.0 | 0.00 | 0.49 | 0.49 | 63 | 999.8 |
| 20260904210346 | 79 | 338 | 9.0 | 15.0 | 0.00 | 0.49 | 0.49 | 62 | 999.8 |
| 20260904205446 | 79 | 342 | 10.0 | 15.0 | 0.00 | 0.49 | 0.49 | 64 | 1000.0 |
| 20260904204547 | 79 | 331 | 12.0 | 16.0 | 0.00 | 0.49 | 0.49 | 62 | 999.9 |
| 20260904203646 | 79 | 324 | 12.0 | 17.0 | 0.00 | 0.49 | 0.49 | 63 | 1000.0 |
| 20260904202746 | 79 | 333 | 10.0 | 16.0 | 0.00 | 0.49 | 0.49 | 61 | 999.9 |
| 20260904201846 | 79 | 12 | 12.0 | 17.0 | 0.00 | 0.49 | 0.49 | 61 | 1000.0 |
| 20260904200046 | 79 | 349 | 12.0 | 17.0 | 0.00 | 0.49 | 0.49 | 61 | 999.9 |
| 20260904195146 | 79 | 343 | 12.0 | 18.0 | 0.00 | 0.49 | 0.49 | 60 | 1000.0 |
| 20260904192446 | 78 | 356 | 16.0 | 21.0 | 0.00 | 0.49 | 0.49 | 59 | 1000.3 |
| 20260904191546 | 79 | 351 | 15.0 | 23.0 | 0.00 | 0.49 | 0.49 | 60 | 1000.4 |
| 20260904190646 | 79 | 341 | 16.0 | 21.0 | 0.00 | 0.49 | 0.49 | 61 | 1000.4 |
| 20260904185746 | 79 | 349 | 14.0 | 22.0 | 0.00 | 0.49 | 0.49 | 61 | 1000.4 |
| 20260904184846 | 78 | 1 | 16.0 | 23.0 | 0.00 | 0.49 | 0.49 | 62 | 1000.3 |
| 20260904183947 | 78 | 353 | 17.0 | 25.0 | 0.00 | 0.49 | 0.49 | 63 | 1000.6 |
| 20260904181246 | 78 | 352 | 14.0 | 22.0 | 0.00 | 0.49 | 0.49 | 63 | 1000.4 |
| 20260904180346 | 78 | 351 | 16.0 | 25.0 | 0.00 | 0.49 | 0.49 | 64 | 1000.5 |
| 20260904173646 | 78 | 8 | 17.0 | 27.0 | 0.00 | 0.49 | 0.49 | 61 | 1000.3 |
| 20260904172746 | 78 | 9 | 16.0 | 24.0 | 0.00 | 0.49 | 0.49 | 65 | 1000.5 |
| 20260904171846 | 78 | 11 | 21.0 | 30.0 | 0.00 | 0.49 | 0.49 | 63 | 1000.5 |